QPF
0.00 0.00 0.00 0.00 0.00 0.00 0.00 0.00 0.00 0.00 0.00 0.00 0.00 0.00 0.00 0.00 0.00 0.00 0.00 0.00 0.00 0.00 0.00 0.00 0.01 0.01 0.01 0.01 0.01 0.01 0.01 0.02 0.02 0.02 0.02 0.02 0.02 0.02 0.02 0.02 0.01 0.01 0.01 0.01
0.00 0.00 0.00 0.00 0.00 0.00 0.00 0.00 0.00 0.00 0.00 0.00 0.00 0.00 0.00 0.00 0.00 0.00 0.00 0.00 0.00 0.00 0.00 0.01 0.02 0.02 0.02 0.02 0.02 0.02 0.02 0.03 0.02 0.02 0.03 0.03 0.03 0.02 0.02 0.02 0.02 0.03 0.03 0.04
0.00 0.00 0.00 0.00 0.00 0.00 0.00 0.00 0.00 0.00 0.00 0.00 0.00 0.00 0.00 0.00 0.00 0.00 0.00 0.00 0.00 0.00 0.00 0.00 0.01 0.02 0.02 0.02 0.02 0.02 0.03 0.04 0.04 0.03 0.03 0.03 0.04 0.06 0.05 0.05 0.06 0.08 0.10 0.11
0.00 0.00 0.00 0.00 0.00 0.00 0.00 0.00 0.00 0.00 0.00 0.00 0.00 0.00 0.00 0.00 0.00 0.00 0.00 0.00 0.00 0.00 0.00 0.00 0.00 0.00 0.00 0.01 0.02 0.03 0.04 0.05 0.05 0.05 0.06 0.06 0.06 0.08 0.10 0.11 0.12 0.15 0.17 0.17
0.01 0.00 0.00 0.00 0.00 0.00 0.00 0.00 0.00 0.00 0.00 0.00 0.00 0.00 0.00 0.00 0.00 0.00 0.00 0.00 0.00 0.00 0.00 0.00 0.00 0.00 0.00 0.01 0.01 0.01 0.02 0.03 0.03 0.03 0.06 0.09 0.10 0.10 0.13 0.18 0.21 0.20 0.18 0.16
0.02 0.01 0.00 0.00 0.00 0.00 0.01 0.01 0.00 0.00 0.00 0.00 0.00 0.00 0.00 0.00 0.00 0.00 0.00 0.00 0.00 0.00 0.00 0.00 0.00 0.00 0.00 0.01 0.01 0.02 0.03 0.05 0.06 0.07 0.10 0.13 0.15 0.17 0.18 0.17 0.17 0.15 0.12 0.09
0.02 0.01 0.00 0.00 0.00 0.00 0.02 0.02 0.00 0.00 0.00 0.00 0.00 0.00 0.00 0.00 0.00 0.00 0.00 0.00 0.00 0.00 0.00 0.00 0.00 0.00 0.01 0.01 0.03 0.03 0.04 0.06 0.09 0.11 0.13 0.15 0.15 0.15 0.15 0.12 0.09 0.07 0.05 0.04
0.01 0.01 0.00 0.01 0.01 0.01 0.01 0.00 0.00 0.00 0.00 0.00 0.00 0.00 0.00 0.00 0.00 0.00 0.00 0.00 0.00 0.00 0.00 0.00 0.00 0.01 0.01 0.02 0.04 0.05 0.06 0.07 0.08 0.10 0.11 0.12 0.11 0.09 0.07 0.05 0.04 0.03 0.02 0.01
0.00 0.00 0.00 0.01 0.01 0.00 0.00 0.00 0.00 0.00 0.00 0.00 0.00 0.00 0.00 0.00 0.00 0.00 0.00 0.00 0.00 0.00 0.00 0.00 0.01 0.01 0.01 0.02 0.03 0.03 0.04 0.05 0.05 0.05 0.05 0.05 0.05 0.04 0.03 0.02 0.02 0.01 0.00 0.00
0.01 0.00 0.00 0.00 0.00 0.00 0.00 0.00 0.00 0.00 0.00 0.00 0.00 0.00 0.00 0.00 0.00 0.00 0.00 0.00 0.00 0.00 0.00 0.00 0.01 0.01 0.02 0.02 0.02 0.02 0.02 0.02 0.02 0.02 0.02 0.01 0.01 0.01 0.01 0.00 0.00 0.00 0.00 0.00
0.01 0.00 0.00 0.00 0.00 0.00 0.00 0.00 0.00 0.00 0.00 0.00 0.00 0.00 0.00 0.00 0.00 0.00 0.00 0.00 0.00 0.00 0.00 0.00 0.01 0.01 0.01 0.01 0.01 0.01 0.01 0.01 0.01 0.01 0.01 0.00 0.00 0.00 0.00 0.00 0.00 0.00 0.00 0.00
0.01 0.01 0.00 0.00 0.00 0.00 0.00 0.00 0.00 0.00 0.00 0.00 0.00 0.00 0.00 0.00 0.00 0.00 0.00 0.00 0.00 0.00 0.00 0.00 0.00 0.00 0.00 0.00 0.00 0.00 0.00 0.00 0.00 0.00 0.00 0.00 0.00 0.00 0.00 0.00 0.00 0.00 0.00 0.00
0.01 0.01 0.00 0.00 0.00 0.00 0.00 0.00 0.00 0.00 0.00 0.00 0.00 0.00 0.00 0.00 0.00 0.00 0.00 0.00 0.00 0.00 0.00 0.00 0.00 0.00 0.00 0.00 0.00 0.00 0.00 0.00 0.00 0.00 0.00 0.00 0.00 0.00 0.00 0.00 0.00 0.00 0.00 0.00
0.00 0.00 0.00 0.00 0.00 0.00 0.00 0.00 0.00 0.00 0.00 0.00 0.00 0.00 0.00 0.00 0.00 0.00 0.00 0.00 0.00 0.00 0.00 0.00 0.00 0.00 0.00 0.00 0.00 0.00 0.00 0.00 0.00 0.00 0.00 0.00 0.00 0.00 0.00 0.00 0.00 0.00 0.00 0.00
0.00 0.00 0.00 0.00 0.00 0.00 0.00 0.00 0.00 0.00 0.00 0.00 0.00 0.00 0.00 0.00 0.00 0.00 0.00 0.00 0.00 0.00 0.00 0.00 0.00 0.00 0.00 0.00 0.00 0.00 0.00 0.00 0.00 0.00 0.00 0.00 0.00 0.00 0.00 0.00 0.00 0.00 0.00 0.00
0.00 0.00 0.00 0.00 0.00 0.00 0.00 0.00 0.00 0.00 0.00 0.00 0.00 0.00 0.00 0.00 0.00 0.00 0.00 0.00 0.00 0.00 0.00 0.00 0.00 0.00 0.00 0.00 0.00 0.00 0.00 0.00 0.00 0.00 0.00 0.00 0.00 0.00 0.00 0.00 0.00 0.00 0.00 0.00
0.00 0.00 0.00 0.00 0.00 0.00 0.00 0.00 0.00 0.00 0.00 0.00 0.00 0.00 0.00 0.00 0.00 0.00 0.00 0.00 0.00 0.00 0.00 0.00 0.00 0.00 0.00 0.00 0.00 0.00 0.00 0.00 0.00 0.00 0.00 0.00 0.00 0.00 0.00 0.00 0.00 0.00 0.00 0.00
0.00 0.00 0.00 0.00 0.00 0.00 0.00 0.00 0.00 0.00 0.00 0.00 0.00 0.00 0.00 0.00 0.00 0.00 0.01 0.01 0.00 0.00 0.00 0.00 0.00 0.00 0.00 0.00 0.00 0.00 0.00 0.00 0.00 0.00 0.00 0.00 0.00 0.00 0.00 0.00 0.00 0.00 0.00 0.00
0.00 0.00 0.00 0.00 0.01 0.01 0.01 0.00 0.00 0.00 0.00 0.00 0.00 0.00 0.00 0.00 0.00 0.01 0.01 0.01 0.00 0.00 0.00 0.00 0.00 0.00 0.00 0.00 0.00 0.00 0.00 0.00 0.00 0.00 0.00 0.00 0.00 0.00 0.00 0.00 0.00 0.00 0.00 0.00
0.00 0.00 0.01 0.01 0.01 0.01 0.01 0.01 0.01 0.01 0.01 0.01 0.00 0.00 0.00 0.00 0.00 0.00 0.00 0.00 0.00 0.00 0.00 0.00 0.00 0.00 0.00 0.00 0.00 0.00 0.00 0.00 0.00 0.00 0.00 0.00 0.00 0.00 0.00 0.00 0.00 0.00 0.00 0.00
0.01 0.01 0.01 0.01 0.01 0.01 0.02 0.02 0.02 0.02 0.02 0.02 0.01 0.01 0.01 0.01 0.00 0.00 0.00 0.00 0.00 0.00 0.00 0.00 0.00 0.00 0.00 0.00 0.00 0.00 0.00 0.00 0.00 0.00 0.00 0.00 0.00 0.00 0.00 0.00 0.00 0.00 0.00 0.00
0.01 0.01 0.01 0.01 0.01 0.02 0.02 0.02 0.02 0.02 0.02 0.01 0.01 0.01 0.01 0.01 0.00 0.00 0.00 0.00 0.00 0.00 0.00 0.00 0.00 0.00 0.00 0.00 0.00 0.00 0.00 0.00 0.00 0.00 0.00 0.00 0.00 0.00 0.00 0.00 0.00 0.00 0.00 0.00
0.00 0.00 0.01 0.01 0.01 0.02 0.02 0.02 0.02 0.02 0.02 0.01 0.01 0.01 0.01 0.01 0.00 0.00 0.00 0.00 0.00 0.00 0.00 0.00 0.00 0.00 0.00 0.00 0.00 0.00 0.00 0.00 0.00 0.00 0.00 0.00 0.00 0.00 0.00 0.00 0.00 0.00 0.00 0.00
0.00 0.00 0.01 0.01 0.01 0.01 0.01 0.01 0.02 0.02 0.02 0.02 0.02 0.02 0.01 0.01 0.01 0.00 0.00 0.00 0.00 0.00 0.00 0.00 0.00 0.00 0.00 0.00 0.00 0.00 0.00 0.00 0.00 0.00 0.00 0.00 0.00 0.00 0.00 0.00 0.00 0.00 0.00 0.00
0.01 0.01 0.01 0.01 0.01 0.01 0.01 0.01 0.01 0.01 0.01 0.01 0.01 0.01 0.01 0.01 0.01 0.01 0.01 0.00 0.00 0.00 0.00 0.00 0.00 0.00 0.00 0.00 0.00 0.00 0.00 0.00 0.00 0.00 0.00 0.00 0.00 0.00 0.00 0.00 0.00 0.00 0.00 0.00
0.01 0.01 0.01 0.01 0.01 0.01 0.01 0.01 0.01 0.01 0.01 0.01 0.01 0.01 0.01 0.01 0.01 0.01 0.01 0.00 0.00 0.00 0.00 0.00 0.00 0.00 0.00 0.00 0.00 0.00 0.00 0.00 0.00 0.00 0.00 0.00 0.00 0.00 0.00 0.00 0.00 0.00 0.00 0.00
0.00 0.00 0.01 0.01 0.01 0.00 0.00 0.00 0.01 0.01 0.01 0.01 0.01 0.01 0.01 0.01 0.01 0.01 0.01 0.00 0.00 0.00 0.00 0.00 0.00 0.00 0.00 0.00 0.00 0.00 0.00 0.00 0.00 0.00 0.00 0.00 0.00 0.00 0.00 0.00 0.00 0.00 0.00 0.00
MSLP
1016.28 1017.05 1017.76 1018.31 1018.63 1018.67 1018.41 1017.88 1017.12 1016.23 1015.31 1014.47 1013.79 1013.33 1013.09 1013.07 1013.19 1013.39 1013.59 1013.70 1013.70 1013.57 1013.31 1012.97 1012.60 1012.25 1011.95 1011.74 1011.62 1011.57 1011.56 1011.58 1011.60 1011.60 1011.60 1011.60 1011.65 1011.77 1011.99 1012.32 1012.76 1013.31 1013.95 1014.64
1016.27 1016.88 1017.39 1017.71 1017.81 1017.64 1017.23 1016.61 1015.86 1015.06 1014.31 1013.70 1013.28 1013.10 1013.12 1013.32 1013.62 1013.95 1014.23 1014.40 1014.42 1014.30 1014.05 1013.73 1013.38 1013.05 1012.79 1012.61 1012.52 1012.50 1012.52 1012.56 1012.59 1012.61 1012.62 1012.65 1012.71 1012.84 1013.06 1013.38 1013.81 1014.33 1014.93 1015.58
1016.10 1016.50 1016.76 1016.84 1016.69 1016.34 1015.80 1015.14 1014.43 1013.77 1013.23 1012.88 1012.75 1012.86 1013.15 1013.58 1014.07 1014.52 1014.88 1015.10 1015.14 1015.02 1014.78 1014.46 1014.13 1013.82 1013.58 1013.43 1013.37 1013.37 1013.41 1013.48 1013.54 1013.58 1013.63 1013.69 1013.78 1013.94 1014.18 1014.51 1014.93 1015.43 1015.99 1016.59
1015.77 1015.92 1015.92 1015.74 1015.38 1014.87 1014.25 1013.59 1012.98 1012.49 1012.18 1012.10 1012.27 1012.66 1013.21 1013.85 1014.49 1015.06 1015.49 1015.74 1015.80 1015.68 1015.44 1015.13 1014.81 1014.52 1014.30 1014.17 1014.13 1014.16 1014.23 1014.32 1014.41 1014.50 1014.60 1014.71 1014.85 1015.05 1015.32 1015.67 1016.09 1016.56 1017.08 1017.61
1015.28 1015.18 1014.94 1014.54 1014.01 1013.40 1012.75 1012.15 1011.67 1011.37 1011.30 1011.49 1011.93 1012.56 1013.32 1014.13 1014.89 1015.54 1016.02 1016.28 1016.35 1016.24 1016.01 1015.71 1015.41 1015.14 1014.95 1014.85 1014.83 1014.89 1014.99 1015.11 1015.25 1015.39 1015.53 1015.70 1015.90 1016.15 1016.45 1016.81 1017.22 1017.67 1018.13 1018.59
1014.65 1014.34 1013.90 1013.35 1012.72 1012.07 1011.46 1010.96 1010.64 1010.55 1010.71 1011.13 1011.78 1012.60 1013.51 1014.43 1015.26 1015.95 1016.44 1016.72 1016.79 1016.69 1016.48 1016.21 1015.94 1015.71 1015.56 1015.50 1015.51 1015.60 1015.73 1015.89 1016.07 1016.25 1016.45 1016.67 1016.92 1017.21 1017.54 1017.90 1018.29 1018.69 1019.08 1019.45
1013.92 1013.45 1012.89 1012.27 1011.63 1011.02 1010.51 1010.15 1010.01 1010.11 1010.46 1011.06 1011.87 1012.80 1013.78 1014.74 1015.59 1016.27 1016.76 1017.03 1017.11 1017.04 1016.87 1016.65 1016.44 1016.27 1016.17 1016.16 1016.22 1016.34 1016.50 1016.70 1016.91 1017.13 1017.37 1017.63 1017.91 1018.22 1018.55 1018.90 1019.25 1019.58 1019.89 1020.17
1013.13 1012.60 1012.01 1011.40 1010.82 1010.31 1009.94 1009.76 1009.79 1010.06 1010.56 1011.28 1012.16 1013.13 1014.11 1015.05 1015.86 1016.50 1016.96 1017.23 1017.33 1017.30 1017.19 1017.05 1016.93 1016.84 1016.82 1016.87 1016.97 1017.13 1017.33 1017.55 1017.78 1018.02 1018.28 1018.56 1018.84 1019.15 1019.46 1019.77 1020.06 1020.32 1020.54 1020.71
1012.38 1011.85 1011.31 1010.79 1010.33 1009.97 1009.77 1009.75 1009.94 1010.34 1010.94 1011.70 1012.58 1013.52 1014.45 1015.31 1016.05 1016.63 1017.06 1017.32 1017.45 1017.49 1017.47 1017.43 1017.41 1017.43 1017.50 1017.62 1017.78 1017.98 1018.19 1018.42 1018.66 1018.91 1019.16 1019.43 1019.70 1019.98 1020.25 1020.50 1020.73 1020.90 1021.03 1021.10
1011.75 1011.29 1010.85 1010.46 1010.16 1009.97 1009.93 1010.06 1010.36 1010.84 1011.47 1012.23 1013.06 1013.91 1014.73 1015.48 1016.13 1016.65 1017.04 1017.32 1017.50 1017.62 1017.71 1017.79 1017.89 1018.02 1018.18 1018.38 1018.59 1018.82 1019.05 1019.28 1019.51 1019.74 1019.97 1020.21 1020.45 1020.68 1020.90 1021.10 1021.25 1021.35 1021.39 1021.37
1011.32 1010.97 1010.66 1010.42 1010.26 1010.22 1010.32 1010.55 1010.93 1011.43 1012.05 1012.74 1013.47 1014.21 1014.91 1015.55 1016.10 1016.56 1016.94 1017.24 1017.48 1017.70 1017.90 1018.11 1018.33 1018.57 1018.83 1019.09 1019.34 1019.59 1019.83 1020.05 1020.26 1020.46 1020.66 1020.86 1021.07 1021.25 1021.42 1021.56 1021.65 1021.68 1021.65 1021.57
1011.16 1010.92 1010.73 1010.61 1010.57 1010.64 1010.82 1011.10 1011.49 1011.98 1012.54 1013.14 1013.76 1014.38 1014.96 1015.49 1015.97 1016.39 1016.77 1017.11 1017.42 1017.74 1018.05 1018.38 1018.71 1019.04 1019.37 1019.68 1019.97 1020.23 1020.46 1020.66 1020.85 1021.03 1021.20 1021.37 1021.54 1021.69 1021.82 1021.92 1021.96 1021.95 1021.88 1021.76
1011.26 1011.11 1011.01 1010.96 1010.99 1011.11 1011.31 1011.60 1011.96 1012.39 1012.87 1013.37 1013.89 1014.40 1014.89 1015.35 1015.79 1016.19 1016.58 1016.97 1017.36 1017.75 1018.16 1018.58 1018.99 1019.40 1019.78 1020.12 1020.43 1020.69 1020.91 1021.10 1021.27 1021.43 1021.58 1021.73 1021.88 1022.01 1022.12 1022.19 1022.22 1022.19 1022.10 1021.97
1011.57 1011.47 1011.41 1011.39 1011.43 1011.53 1011.71 1011.95 1012.26 1012.62 1013.01 1013.44 1013.88 1014.32 1014.75 1015.18 1015.60 1016.01 1016.43 1016.87 1017.31 1017.77 1018.24 1018.72 1019.18 1019.62 1020.03 1020.39 1020.70 1020.96 1021.18 1021.36 1021.53 1021.68 1021.83 1021.97 1022.12 1022.24 1022.35 1022.42 1022.44 1022.41 1022.33 1022.19
1012.01 1011.92 1011.84 1011.79 1011.79 1011.84 1011.95 1012.13 1012.36 1012.66 1012.99 1013.37 1013.77 1014.18 1014.60 1015.03 1015.46 1015.90 1016.36 1016.83 1017.31 1017.81 1018.31 1018.81 1019.29 1019.74 1020.14 1020.50 1020.81 1021.07 1021.30 1021.49 1021.66 1021.82 1021.98 1022.14 1022.29 1022.43 1022.54 1022.62 1022.65 1022.62 1022.54 1022.42
1012.47 1012.35 1012.22 1012.10 1012.02 1011.98 1012.02 1012.12 1012.30 1012.54 1012.85 1013.21 1013.61 1014.04 1014.48 1014.94 1015.41 1015.89 1016.38 1016.87 1017.37 1017.88 1018.37 1018.86 1019.32 1019.76 1020.15 1020.51 1020.82 1021.09 1021.32 1021.54 1021.73 1021.92 1022.10 1022.28 1022.44 1022.59 1022.71 1022.79 1022.82 1022.80 1022.73 1022.61
1012.86 1012.68 1012.47 1012.26 1012.09 1011.97 1011.92 1011.96 1012.10 1012.33 1012.64 1013.01 1013.45 1013.93 1014.43 1014.94 1015.46 1015.98 1016.49 1016.99 1017.48 1017.96 1018.43 1018.88 1019.32 1019.72 1020.10 1020.45 1020.77 1021.06 1021.33 1021.57 1021.80 1022.02 1022.23 1022.42 1022.60 1022.75 1022.86 1022.93 1022.96 1022.93 1022.86 1022.73
1013.13 1012.87 1012.57 1012.27 1012.01 1011.81 1011.71 1011.71 1011.83 1012.06 1012.40 1012.83 1013.33 1013.87 1014.44 1015.01 1015.57 1016.11 1016.63 1017.12 1017.59 1018.04 1018.46 1018.87 1019.27 1019.65 1020.02 1020.38 1020.72 1021.04 1021.35 1021.64 1021.91 1022.16 1022.39 1022.60 1022.77 1022.90 1023.00 1023.04 1023.04 1022.99 1022.89 1022.75
1013.26 1012.93 1012.55 1012.18 1011.85 1011.59 1011.45 1011.43 1011.56 1011.81 1012.20 1012.68 1013.24 1013.85 1014.48 1015.10 1015.69 1016.24 1016.76 1017.23 1017.66 1018.06 1018.44 1018.82 1019.19 1019.56 1019.93 1020.31 1020.68 1021.05 1021.41 1021.75 1022.06 1022.34 1022.59 1022.79 1022.94 1023.04 1023.09 1023.09 1023.05 1022.96 1022.83 1022.66
1013.34 1012.94 1012.50 1012.07 1011.69 1011.39 1011.23 1011.21 1011.34 1011.63 1012.05 1012.58 1013.19 1013.84 1014.50 1015.14 1015.75 1016.30 1016.79 1017.23 1017.62 1017.99 1018.34 1018.69 1019.05 1019.42 1019.82 1020.23 1020.66 1021.08 1021.49 1021.88 1022.23 1022.53 1022.78 1022.96 1023.08 1023.14 1023.13 1023.08 1022.98 1022.84 1022.67 1022.48
1013.44 1013.00 1012.52 1012.04 1011.63 1011.31 1011.13 1011.11 1011.25 1011.54 1011.98 1012.53 1013.15 1013.81 1014.47 1015.11 1015.70 1016.22 1016.69 1017.09 1017.46 1017.80 1018.13 1018.47 1018.84 1019.24 1019.68 1020.14 1020.62 1021.10 1021.57 1022.00 1022.37 1022.68 1022.92 1023.08 1023.15 1023.16 1023.10 1022.99 1022.83 1022.65 1022.44 1022.22
1013.66 1013.19 1012.68 1012.19 1011.75 1011.42 1011.22 1011.18 1011.30 1011.58 1012.00 1012.52 1013.12 1013.75 1014.37 1014.97 1015.52 1016.01 1016.43 1016.81 1017.15 1017.48 1017.82 1018.18 1018.57 1019.02 1019.50 1020.02 1020.55 1021.08 1021.59 1022.05 1022.44 1022.75 1022.97 1023.09 1023.13 1023.09 1022.98 1022.82 1022.62 1022.40 1022.17 1021.94
1014.05 1013.57 1013.05 1012.54 1012.09 1011.74 1011.51 1011.44 1011.52 1011.75 1012.10 1012.56 1013.09 1013.64 1014.20 1014.74 1015.23 1015.67 1016.06 1016.41 1016.75 1017.08 1017.43 1017.82 1018.26 1018.75 1019.28 1019.85 1020.42 1020.99 1021.52 1022.00 1022.39 1022.69 1022.89 1022.99 1022.99 1022.91 1022.77 1022.57 1022.35 1022.12 1021.88 1021.63
1014.59 1014.11 1013.60 1013.09 1012.62 1012.25 1011.99 1011.86 1011.88 1012.02 1012.28 1012.64 1013.06 1013.52 1013.98 1014.43 1014.86 1015.25 1015.61 1015.95 1016.29 1016.64 1017.02 1017.45 1017.93 1018.46 1019.03 1019.63 1020.24 1020.82 1021.36 1021.83 1022.21 1022.50 1022.67 1022.74 1022.72 1022.63 1022.47 1022.27 1022.04 1021.80 1021.56 1021.32
1015.22 1014.76 1014.26 1013.75 1013.29 1012.89 1012.59 1012.39 1012.32 1012.36 1012.51 1012.75 1013.04 1013.39 1013.74 1014.11 1014.46 1014.81 1015.15 1015.49 1015.84 1016.22 1016.64 1017.11 1017.63 1018.19 1018.79 1019.40 1020.01 1020.58 1021.11 1021.56 1021.91 1022.17 1022.33 1022.38 1022.35 1022.25 1022.09 1021.89 1021.67 1021.45 1021.22 1020.98
1015.83 1015.40 1014.92 1014.44 1013.97 1013.55 1013.20 1012.94 1012.78 1012.72 1012.74 1012.85 1013.03 1013.25 1013.51 1013.80 1014.09 1014.41 1014.73 1015.08 1015.46 1015.88 1016.33 1016.84 1017.38 1017.96 1018.56 1019.17 1019.75 1020.30 1020.79 1021.20 1021.52 1021.75 1021.88 1021.92 1021.88 1021.78 1021.63 1021.45 1021.25 1021.03 1020.81 1020.57
1016.30 1015.91 1015.47 1015.01 1014.55 1014.12 1013.74 1013.43 1013.18 1013.02 1012.94 1012.94 1013.00 1013.12 1013.30 1013.52 1013.78 1014.07 1014.40 1014.77 1015.18 1015.63 1016.12 1016.65 1017.22 1017.80 1018.38 1018.96 1019.50 1020.00 1020.44 1020.79 1021.07 1021.26 1021.36 1021.38 1021.34 1021.24 1021.11 1020.94 1020.74 1020.53 1020.30 1020.05
Thickness
5503 5509 5507 5509 5510 5504 5503 5501 5499 5511 5516 5539 5547 5550 5551 5546 5542 5539 5534 5530 5527 5523 5520 5517 5514 5510 5506 5502 5498 5495 5492 5488 5486 5486 5488 5489 5491 5493 5495 5496 5497 5498 5498 5496
5502 5507 5505 5506 5510 5510 5510 5512 5513 5517 5527 5547 5549 5548 5546 5541 5535 5530 5524 5520 5517 5514 5511 5507 5503 5500 5495 5490 5486 5483 5479 5475 5474 5474 5474 5474 5475 5477 5479 5480 5481 5482 5482 5481
5494 5502 5507 5505 5518 5517 5514 5519 5521 5524 5537 5548 5548 5549 5543 5534 5527 5520 5515 5512 5509 5505 5502 5498 5495 5491 5486 5481 5477 5473 5468 5464 5463 5464 5463 5462 5464 5465 5466 5467 5468 5468 5468 5468
5496 5500 5495 5524 5537 5530 5527 5531 5532 5536 5543 5546 5547 5539 5529 5523 5517 5512 5508 5504 5501 5498 5495 5492 5489 5485 5480 5475 5470 5465 5460 5457 5455 5455 5454 5454 5455 5455 5455 5456 5457 5457 5456 5456
5496 5496 5502 5524 5534 5531 5528 5535 5541 5539 5544 5545 5537 5531 5524 5515 5511 5505 5502 5499 5495 5493 5490 5487 5484 5480 5475 5470 5465 5461 5456 5453 5451 5450 5449 5448 5448 5447 5447 5448 5447 5446 5446 5445
5496 5498 5503 5528 5538 5538 5536 5537 5546 5543 5542 5540 5534 5534 5530 5510 5504 5499 5496 5493 5490 5488 5486 5482 5478 5475 5470 5465 5460 5456 5453 5450 5448 5446 5445 5444 5443 5442 5441 5441 5439 5438 5437 5436
5495 5497 5505 5526 5533 5534 5531 5539 5544 5543 5540 5535 5530 5528 5514 5504 5499 5494 5491 5488 5486 5483 5480 5477 5474 5471 5466 5461 5456 5453 5450 5448 5445 5443 5441 5440 5438 5437 5436 5434 5432 5430 5427 5426
5496 5496 5506 5531 5528 5530 5536 5539 5538 5537 5534 5529 5521 5510 5503 5499 5495 5490 5486 5483 5480 5477 5474 5472 5469 5466 5462 5457 5453 5451 5448 5445 5442 5440 5438 5435 5433 5431 5429 5427 5424 5421 5419 5417
5502 5512 5524 5527 5530 5533 5532 5532 5533 5529 5526 5520 5513 5507 5501 5496 5491 5487 5483 5479 5476 5472 5469 5466 5464 5461 5458 5453 5450 5448 5444 5441 5437 5435 5432 5431 5429 5425 5422 5420 5417 5413 5411 5409
5503 5511 5520 5524 5526 5528 5528 5528 5527 5524 5519 5515 5510 5505 5499 5493 5488 5484 5480 5475 5472 5469 5466 5462 5459 5456 5453 5450 5447 5444 5440 5435 5433 5430 5427 5424 5422 5420 5416 5413 5410 5407 5405 5402
5505 5514 5520 5527 5526 5525 5523 5521 5519 5517 5514 5511 5507 5502 5497 5491 5486 5482 5478 5473 5469 5466 5462 5458 5455 5452 5449 5446 5443 5439 5434 5430 5427 5424 5420 5417 5415 5413 5410 5407 5405 5402 5399 5395
5508 5514 5515 5520 5519 5518 5517 5516 5514 5511 5508 5506 5503 5499 5494 5489 5485 5480 5475 5471 5466 5462 5459 5455 5451 5448 5445 5442 5439 5435 5430 5424 5421 5417 5414 5411 5409 5406 5406 5404 5401 5398 5394 5390
5503 5504 5506 5509 5509 5510 5510 5509 5508 5506 5505 5501 5498 5495 5491 5486 5482 5477 5473 5468 5464 5460 5455 5451 5447 5443 5440 5438 5434 5430 5425 5420 5416 5413 5409 5406 5403 5400 5396 5394 5392 5389 5385 5381
5492 5494 5500 5502 5501 5501 5501 5501 5500 5499 5498 5496 5493 5490 5487 5482 5478 5474 5470 5466 5461 5456 5451 5447 5443 5439 5436 5433 5430 5425 5420 5417 5412 5407 5404 5400 5397 5393 5389 5385 5380 5376 5374 5371
5481 5483 5487 5490 5490 5491 5492 5492 5492 5491 5490 5489 5487 5485 5482 5478 5474 5470 5466 5462 5457 5452 5447 5443 5439 5435 5432 5429 5425 5420 5416 5410 5406 5402 5398 5394 5390 5386 5381 5377 5372 5367 5362 5359
5471 5476 5480 5482 5484 5485 5485 5486 5487 5486 5485 5484 5482 5480 5478 5474 5469 5464 5461 5457 5453 5449 5444 5440 5435 5431 5428 5424 5420 5415 5411 5408 5402 5397 5392 5388 5383 5378 5373 5368 5363 5358 5353 5348
5464 5470 5473 5475 5478 5480 5482 5483 5484 5484 5482 5480 5478 5475 5471 5466 5462 5458 5454 5452 5448 5444 5440 5436 5432 5427 5424 5420 5415 5410 5406 5402 5398 5391 5386 5381 5376 5371 5365 5360 5355 5350 5345 5341
5458 5463 5467 5470 5474 5477 5480 5481 5481 5481 5479 5477 5473 5468 5465 5462 5458 5453 5448 5444 5440 5436 5434 5431 5427 5423 5418 5415 5410 5405 5400 5395 5389 5384 5379 5374 5369 5364 5358 5353 5347 5342 5337 5333
5455 5459 5464 5468 5471 5474 5477 5478 5478 5477 5475 5471 5468 5464 5461 5458 5453 5448 5442 5439 5436 5433 5429 5426 5423 5418 5413 5409 5405 5400 5394 5388 5383 5378 5373 5369 5362 5356 5351 5345 5340 5335 5331 5326
5451 5455 5460 5464 5467 5470 5472 5473 5472 5471 5468 5466 5462 5459 5455 5451 5447 5442 5438 5435 5434 5431 5427 5422 5418 5413 5408 5404 5400 5393 5388 5382 5376 5371 5365 5360 5355 5349 5344 5339 5334 5329 5325 5320
5444 5448 5452 5455 5459 5462 5464 5465 5465 5463 5461 5459 5457 5454 5450 5445 5441 5437 5433 5430 5428 5425 5422 5418 5412 5407 5403 5399 5394 5387 5382 5376 5370 5364 5359 5354 5348 5343 5338 5333 5328 5323 5318 5313
5437 5440 5443 5446 5449 5452 5454 5456 5456 5456 5454 5453 5450 5448 5443 5439 5435 5432 5431 5429 5425 5421 5417 5412 5407 5403 5398 5394 5387 5381 5375 5370 5364 5359 5353 5348 5342 5337 5332 5326 5321 5317 5312 5305
5429 5432 5435 5437 5440 5442 5444 5446 5447 5447 5446 5445 5444 5442 5439 5436 5433 5429 5427 5423 5420 5418 5412 5407 5403 5399 5395 5387 5381 5375 5370 5364 5359 5353 5348 5342 5337 5331 5326 5321 5315 5310 5305 5299
5421 5423 5425 5428 5430 5433 5435 5435 5436 5437 5438 5438 5437 5436 5433 5430 5427 5425 5424 5421 5418 5413 5407 5403 5399 5395 5390 5380 5375 5370 5364 5359 5354 5348 5342 5337 5331 5326 5321 5315 5310 5305 5300 5294
5412 5414 5416 5418 5421 5423 5425 5426 5427 5428 5429 5429 5429 5428 5427 5426 5424 5421 5417 5415 5413 5408 5402 5398 5395 5390 5383 5375 5370 5365 5359 5354 5348 5343 5337 5332 5327 5321 5316 5311 5306 5300 5294 5289
5403 5405 5407 5409 5411 5413 5415 5416 5418 5419 5420 5420 5420 5420 5419 5417 5416 5413 5411 5408 5405 5402 5396 5392 5388 5384 5376 5370 5365 5359 5354 5349 5344 5339 5333 5328 5323 5317 5312 5307 5302 5296 5290 5285
5394 5396 5398 5401 5403 5404 5405 5407 5408 5410 5411 5412 5412 5411 5410 5408 5407 5405 5403 5400 5397 5394 5389 5385 5381 5376 5370 5364 5359 5354 5349 5344 5339 5334 5328 5323 5318 5313 5308 5303 5297 5292 5287 5282